Regional Weather Roundup
Issued by NWS

Home | Current Version | Previous Version | Text Only | Print | Product List | Glossary On
Versions: 1 2 3 4 5 6 7 8 9 10 11 12 13 14 15 16 17 18 19 20 21 22 23 24 25 26 27 28 29 30 31 32 33 34 35 36 37 38 39 40 41 42 43 44 45 46 47 48 49 50
000
ASUS46 KPQR 222310
RWROR

OREGON REGIONAL WEATHER ROUNDUP
NATIONAL WEATHER SERVICE PORTLAND OR
400 PM PDT TUE JUL 22 2014

NOTE: "FAIR" INDICATES FEW OR NO CLOUDS BELOW 12,000 FEET WITH
NO SIGNIFICANT WEATHER AND/OR OBSTRUCTIONS TO VISIBILITY.

ORZ001>013-230000-
NORTHWEST OREGON


CITY           SKY/WX    TMP DP  RH WIND       PRES   REMARKS
ASTORIA        SUNNY     69  52  54 W7        30.04F
NEWPORT        SUNNY     59  54  82 SW6       30.09S
PORTLAND       LGT RAIN  73  60  63 SE10      30.04F
VANCOUVER WA   MOSUNNY   73  60  63 SE10      30.04F
SCAPPOOSE      SUNNY     75  57  53 SE9       30.02F
HILLSBORO      PTSUNNY   75  56  51 S8        30.03F
AURORA         CLOUDY    71  60  68 E7        30.05F
MCMINNVILLE    SUNNY     78  57  48 E13       30.02F
SALEM          LGT RAIN  70  60  70 SE5       30.02F
CORVALLIS      PTSUNNY   72  59  64 E3        30.04S
EUGENE         CLOUDY    78  55  44 VRB5      30.02F
$$

ORZ021-028-230000-
SOUTHWEST OREGON


CITY           SKY/WX    TMP DP  RH WIND       PRES   REMARKS
NORTH BEND     PTSUNNY   63  57  82 W12       30.07S
BROOKINGS      FOG       57  55  94 SW5       30.11R VSB 1/2
ROSEBURG       PTSUNNY   78  58  49 N7        30.01F
SEXTON SUMMIT  PTSUNNY   71  53  52 VRB3      30.10F
MEDFORD        PTSUNNY   87  51  28 NW13      29.94F
$$

ORZ009-041-230000-
COLUMBIA GORGE


CITY           SKY/WX    TMP DP  RH WIND       PRES   REMARKS
TROUTDALE      LGT RAIN  68  60  75 E6        30.04F
THE DALLES     CLOUDY    80  59  48 NW13      29.99F
$$

ORZ029>031-042>050-061>064-230000-
EASTERN OREGON


CITY           SKY/WX    TMP DP  RH WIND       PRES   REMARKS
REDMOND        PTSUNNY   74  55  51 NW12      30.05S
BEND           LGT RAIN  66  61  82 N7        30.08S
KLAMATH FALLS  MOSUNNY   82  43  25 S13       30.07F
LAKEVIEW       PTSUNNY   81  45  28 S15       30.15F
HERMISTON      MOSUNNY   86  53  32 W8        29.98F
PENDLETON      MOSUNNY   86  49  27 VRB3      30.02S
JOHN DAY       MOCLDY    82  47  29 SE10      30.10R HAZE
MEACHAM        LGT RAIN  63  61  93 NE7       30.13F
LA GRANDE      CLOUDY    86  52  30 W22G32    30.02S
BAKER CITY     PTSUNNY   88  40  18 SE16G26   30.06F
BURNS          PTSUNNY   84  43  23 SE15G24   30.10F
ROME             N/A     87  44  22 S8        30.10F
ONTARIO        PTSUNNY   90  50  25 SE12      30.03F
$$



USA.gov is the U.S. government's official web portal to all federal, state and local government web resources and services.